K5BV Weather Reports


Display with metric or nautical units.
time (UTC)temp
F
wind
direction
speed
MPH
gust
MPH
rain 1hr
in
rain 24hr
in
rain mn
in
humidity
%
barometer
mb
20181211174305 60 56 2.0 7.0 0.00 0.00 0.00 79 1028.6
20181211173304 60 50 3.0 6.0 0.00 0.00 0.00 78 1028.8
20181211172305 60 50 3.0 7.0 0.00 0.00 0.00 77 1029.0
20181211171304 60 27 3.0 7.0 0.00 0.00 0.00 77 1029.2
20181211170304 60 44 4.0 7.0 0.00 0.00 0.00 78 1029.5
20181211165305 60 73 2.0 6.0 0.00 0.00 0.00 78 1029.7
20181211164304 61 34 3.0 7.0 0.00 0.00 0.00 78 1029.8
20181211162305 60 41 2.0 5.0 0.00 0.00 0.00 81 1030.2
20181211160304 59 42 2.0 6.0 0.00 0.00 0.00 87 1030.4
20181211153304 56 18 3.0 7.0 0.00 0.00 0.00 94 1030.4
20181211152304 54 29 3.0 5.0 0.00 0.00 0.00 96 1030.4
20181211150306 52 330 1.0 5.0 0.00 0.00 0.00 97 1030.4
20181211145304 51 346 2.0 5.0 0.00 0.00 0.00 98 1030.4
20181211144305 50 324 3.0 5.0 0.00 0.00 0.00 98 1030.3
20181211143304 49 335 2.0 6.0 0.00 0.00 0.00 98 1030.4
20181211142304 48 322 2.0 5.0 0.00 0.00 0.00 98 1030.3
20181211140304 47 314 2.0 6.0 0.00 0.00 0.00 98 1030.1
20181211135305 47 330 2.0 5.0 0.00 0.00 0.00 98 1030.1
20181211134304 46 313 3.0 5.0 0.00 0.00 0.00 98 1030.1
20181211133304 46 317 1.0 5.0 0.00 0.00 0.00 98 1029.9
20181211132305 46 314 2.0 5.0 0.00 0.00 0.00 98 1030.0
20181211131304 46 325 2.0 5.0 0.00 0.00 0.00 98 1029.9
20181211130304 46 309 2.0 5.0 0.00 0.00 0.00 98 1029.9
20181211125304 45 304 1.0 6.0 0.00 0.00 0.00 98 1029.9
20181211124304 45 313 5.0 8.0 0.00 0.00 0.00 98 1030.0
20181211123305 45 314 5.0 7.0 0.00 0.00 0.00 98 1029.9
20181211122305 46 316 5.0 7.0 0.00 0.00 0.00 98 1029.9
20181211121304 47 320 5.0 7.0 0.00 0.00 0.00 98 1029.9
20181211120304 47 311 3.0 6.0 0.00 0.00 0.00 98 1030.0
20181211115304 47 318 4.0 6.0 0.00 0.00 0.00 98 1029.9
20181211114304 47 313 3.0 5.0 0.00 0.00 0.00 98 1029.9
20181211113304 47 315 2.0 6.0 0.00 0.00 0.00 98 1029.7
20181211112305 47 318 3.0 6.0 0.00 0.00 0.00 97 1029.7
20181211111304 47 320 3.0 5.0 0.00 0.00 0.00 97 1029.6
20181211110304 48 327 3.0 5.0 0.00 0.00 0.00 97 1029.6
20181211105306 48 322 3.0 5.0 0.00 0.00 0.00 96 1029.5
20181211103304 49 321 2.0 5.0 0.00 0.00 0.00 96 1029.6
20181211101304 49 301 2.0 3.0 0.00 0.00 0.00 96 1029.6
20181211095306 49 229 0.0 2.0 0.00 0.00 0.00 96 1029.5
20181211094304 49 268 1.0 2.0 0.00 0.00 0.00 96 1029.4
20181211093304 49 237 0.0 2.0 0.00 0.00 0.00 96 1029.3
20181211092306 49 269 1.0 2.0 0.00 0.00 0.00 96 1029.5
20181211091304 49 198 0.0 0.0 0.00 0.00 0.00 96 1029.4
20181211090305 49 198 0.0 0.0 0.00 0.00 0.00 96 1029.6
20181211085305 49 198 0.0 1.0 0.00 0.00 0.00 96 1029.7
20181211084305 49 258 1.0 2.0 0.00 0.00 0.00 96 1029.7
20181211083304 49 0 0.0 0.0 0.00 0.00 0.00 96 1029.6
20181211082306 49 0 0.0 0.0 0.00 0.00 0.00 96 1029.6
20181211081304 49 0 0.0 0.0 0.00 0.00 0.00 96 1029.7
20181211080305 49 0 0.0 0.0 0.00 0.00 0.00 96 1029.7
20181211075305 49 0 0.0 0.0 0.00 0.00 0.00 96 1029.6
20181211074304 49 0 0.0 0.0 0.00 0.00 0.00 96 1029.4
20181211073305 49 0 0.0 0.0 0.00 0.00 0.00 96 1029.6
20181211072306 49 0 0.0 0.0 0.00 0.00 0.00 96 1029.9
20181211071304 49 0 0.0 0.0 0.00 0.00 0.00 96 1029.9
20181211070303 49 0 0.0 0.0 0.00 0.00 0.00 96 1029.9
20181211064304 49 0 0.0 0.0 0.00 0.00 0.00 95 1030.0
20181211063304 49 0 0.0 0.0 0.00 0.00 0.00 95 1030.1
20181211062304 50 0 0.0 0.0 0.00 0.00 0.00 95 1030.0
20181211061304 49 0 0.0 0.0 0.00 0.00 0.00 94 1030.0
20181211060304 50 0 0.0 0.0 0.00 0.00 0.00 94 1030.0
20181211055304 50 0 0.0 0.0 0.00 0.00 0.00 93 1030.1
20181211054304 50 0 0.0 0.0 0.00 0.00 0.00 93 1030.2
20181211053304 51 0 0.0 0.0 0.00 0.00 0.00 92 1030.2
20181211052304 51 0 0.0 0.0 0.00 0.00 0.00 91 1030.4
20181211051304 52 0 0.0 0.0 0.00 0.00 0.00 89 1030.4
20181211050304 53 0 0.0 0.0 0.00 0.00 0.00 88 1030.2
20181211045304 54 0 0.0 0.0 0.00 0.00 0.00 87 1030.4
20181211044305 55 161 0.0 3.0 0.00 0.00 0.00 86 1030.7
20181211043306 55 161 1.0 3.0 0.00 0.00 0.00 86 1030.5
20181211041306 55 172 3.0 6.0 0.00 0.00 0.00 86 1030.3
20181211040306 54 180 2.0 5.0 0.00 0.00 0.00 87 1030.2
20181211035306 54 160 2.0 5.0 0.00 0.00 0.00 86 1030.2
20181211032306 55 169 3.0 5.0 0.00 0.00 0.00 86 1030.4
20181211031306 55 162 3.0 6.0 0.00 0.00 0.00 86 1030.4
20181211030307 55 176 2.0 5.0 0.00 0.00 0.00 86 1030.3
20181211025306 55 161 2.0 5.0 0.00 0.00 0.00 87 1030.2
20181211023305 55 160 2.0 3.0 0.00 0.00 0.00 85 1030.3
20181211022306 55 162 2.0 3.0 0.00 0.00 0.00 85 1030.1
20181211021306 55 145 1.0 3.0 0.00 0.00 0.00 84 1030.1
20181211020306 55 150 0.0 3.0 0.00 0.00 0.00 85 1030.1
20181211015307 55 139 2.0 5.0 0.00 0.00 0.00 85 1029.9
20181211014306 55 121 2.0 5.0 0.00 0.00 0.00 84 1029.7
20181211013306 55 136 1.0 3.0 0.00 0.00 0.00 82 1029.9
20181211012307 55 126 2.0 5.0 0.00 0.00 0.00 82 1029.9
20181211011306 55 152 2.0 5.0 0.00 0.00 0.00 82 1029.6
20181211010306 56 150 2.0 3.0 0.00 0.00 0.00 82 1029.7
20181211005307 56 127 0.0 2.0 0.00 0.00 0.00 81 1029.4
20181211004306 56 182 0.0 3.0 0.00 0.00 0.00 80 1029.5
20181211003306 56 184 2.0 6.0 0.00 0.00 0.00 80 1029.4
20181211002306 56 174 3.0 6.0 0.00 0.00 0.00 80 1029.1
20181211001306 56 169 3.0 6.0 0.00 0.00 0.00 79 1029.1
20181211000306 56 183 2.0 5.0 0.00 0.00 0.00 81 1028.9
20181210235305 56 172 1.0 5.0 0.00 0.00 0.00 82 1028.9
20181210234305 56 193 2.0 5.0 0.00 0.00 0.00 83 1028.9
20181210233306 56 187 2.0 5.0 0.00 0.00 0.00 82 1028.8
20181210232306 56 205 3.0 5.0 0.00 0.00 0.00 82 1028.7
20181210231305 57 200 3.0 6.0 0.00 0.00 0.00 80 1028.6
20181210230306 57 200 3.0 6.0 0.00 0.00 0.00 78 1028.5
20181210223305 57 189 3.0 7.0 0.00 0.00 0.00 76 1028.3
20181210222306 58 188 5.0 8.0 0.00 0.00 0.00 75 1028.3
20181210221306 58 187 5.0 9.0 0.00 0.00 0.00 75 1028.2
20181210220305 59 172 4.0 8.0 0.00 0.00 0.00 75 1028.2
20181210215306 60 158 3.0 6.0 0.00 0.00 0.00 71 1028.2
20181210214306 62 127 2.0 6.0 0.00 0.00 0.00 67 1028.1
20181210213306 60 292 5.0 8.0 0.00 0.00 0.00 60 1028.0
20181210212306 62 358 2.0 7.0 0.00 0.00 0.00 61 1027.9
20181210211305 60 297 2.0 8.0 0.00 0.00 0.00 67 1028.3
20181210210305 62 107 0.0 5.0 0.00 0.00 0.00 66 1028.2
20181210205306 62 167 1.0 7.0 0.00 0.00 0.00 67 1028.1
20181210204305 60 164 2.0 6.0 0.00 0.00 0.00 67 1028.2
20181210203306 59 315 3.0 12.0 0.00 0.00 0.00 65 1028.2
20181210202305 59 203 0.0 3.0 0.00 0.00 0.00 64 1028.3
20181210201305 59 223 2.0 12.0 0.00 0.00 0.00 65 1028.3
20181210200306 58 312 7.0 13.0 0.00 0.00 0.00 65 1028.5
20181210195305 59 308 2.0 6.0 0.00 0.00 0.00 64 1028.6
20181210194305 58 284 2.0 9.0 0.00 0.00 0.00 66 1028.6
20181210193305 58 334 6.0 10.0 0.00 0.00 0.00 67 1028.8
20181210192306 58 339 5.0 12.0 0.00 0.00 0.00 67 1029.0
20181210191306 57 330 7.0 12.0 0.00 0.00 0.00 66 1029.1
20181210190305 56 317 7.0 12.0 0.00 0.00 0.00 68 1029.2
20181210185305 56 353 3.0 14.0 0.00 0.00 0.00 69 1029.3
20181210183306 56 322 5.0 10.0 0.00 0.00 0.00 69 1029.6
20181210182305 56 323 3.0 10.0 0.00 0.00 0.00 70 1029.8
20181210181306 56 306 5.0 9.0 0.00 0.00 0.00 68 1029.9
20181210175306 56 349 3.0 8.0 0.00 0.00 0.00 72 1030.4